Location: Unspecified
(0.0000°N, 0.0000°E)
Time: 13:46:05
(UTC+00:00)

Vanguard 3 - Pass Details

Date: 11 December 2025
Orbit: 507 x 3207 km, 33.3° (Epoch: 22 January)

Event Time Altitude Azimuth Distance (km) Brightness Sun altitude
Rises 19:36:30 0° 338° (NNW) 2,626 - -23.6°
Reaches altitude 10° 19:39:19 10° 4° (N) 1,871 - -24.2°
Maximum altitude 19:41:47 15° 41° (NE) 1,732 - -24.7°
Drops below altitude 10° 19:44:44 10° 77° (ENE) 2,319 - -25.4°
Sets 19:48:54 0° 99° (E) 3,717 - -26.4°
